Regional Weather Roundup
Issued by NWS

Home | Current Version | Previous Version | Text Only | Print | Product List | Glossary On
Versions: 1 2 3 4 5 6 7 8 9 10 11 12 13 14 15 16 17 18 19 20 21 22 23 24 25 26 27 28 29 30 31 32 33 34 35 36 37 38 39 40 41 42 43 44 45 46 47 48 49 50
000
ASUS46 KSTO 151415
RWRCA

NORTHERN AND CENTRAL CA REGIONAL WEATHER ROUNDUP
NATIONAL WEATHER SERVICE SACRAMENTO CA
600 AM PST FRI DEC 15 2017

NOTE: FAIR INDICATES FEW OR NO CLOUDS BELOW 12,000 FEET WITH NO
SIGNIFICANT WEATHER AND/OR OBSTRUCTIONS TO VISIBILITY.

CAZ001-003-151500-
NORTHWEST AREA

CITY           SKY/WX    TMP DP  RH WIND       PRES   REMARKS
CRESCENT CITY  CLOUDY    44  41  89 CALM      30.23S
UKIAH          CLOUDY    36  33  89 CALM      30.20S
$$

CAZ006-505>513-151500-
BAY AREA

CITY           SKY/WX    TMP DP  RH WIND       PRES   REMARKS
SANTA ROSA     FOG       33  33 100 CALM      30.18R VSB 1/2
SAN RAFAEL     N/A       44  MM  MM MISG
NAPA           PTCLDY    39  36  89 N7        30.18R WCI  34
CONCORD        CLEAR     38  34  85 CALM      30.20S FOG
OAKLAND CITY   N/A      MM  MM  MM MISG
OAKLAND        CLEAR     40  38  93 E3        30.17S
SAN FRAN CITY  N/A       50  MM  73 MISG
SAN FRAN ARPT  PTCLDY    46  41  82 S3        30.17R
LIVERMORE      CLEAR     35  31  85 CALM      30.18R
HAYWARD        CLEAR     44  33  65 E3        30.17R
REDWOOD CITY   N/A       37  MM  90 MISG
MOFFETT ARPT   PTCLDY    42  37  82 CALM      30.18S
SAN JOSE ARPT  PTCLDY    39  34  82 CALM      30.17S
$$
CAZ034-037-514>518-151500-
CENTRAL COAST

CITY           SKY/WX    TMP DP  RH WIND       PRES   REMARKS
WATSONVILLE    CLEAR     41  33  73 W3        30.14S
SALINAS        CLEAR     43  25  49 E14       30.13S
MONTEREY       CLEAR     45  30  55 SE3       30.13R
SAN LUIS OBISP PTCLDY    38  25  59 CALM      30.14R
SANTA MARIA    CLEAR     42  22  44 E5        30.13S
$$
CAZ015-016-151500-
NORTHERN SACRAMENTO VALLEY

CITY           SKY/WX    TMP DP  RH WIND       PRES   REMARKS
REDDING        MOCLDY    35  32  88 CALM      30.17F
RED BLUFF      CLOUDY    41  36  82 N5        30.19S
OROVILLE       MOCLDY    39  37  92 CALM      30.20S
$$
CAZ016>018-151500-
SOUTHERN SACRAMENTO VALLEY

CITY           SKY/WX    TMP DP  RH WIND       PRES   REMARKS
AUBURN         PTCLDY    48  36  61 E8        30.18F
BEALE AFB      CLEAR     36  33  90 CALM      30.17S
LINCOLN        FAIR      32  32 100 CALM      30.18S
MARYSVILLE     PTCLDY    33  31  92 CALM      30.20S FOG
SAC INTL ARPT  FOG       32  32 100 CALM      30.20R VSB 1/4
MATHER AIRPORT PTCLDY    34  32  93 E5        30.18F WCI  30
DOWNTOWN SAC   N/A       38  MM  MM MISG
SAC EXEC ARPT  PTCLDY    34  34 100 CALM      30.20S FOG
VACAVILLE      CLEAR     34  33  96 CALM      30.21R
TRAVIS AFB     CLEAR     34  33  96 E3        30.18S
$$
CAZ019>021-151500-
SAN JOAQUIN VALLEY

CITY           SKY/WX    TMP DP  RH WIND       PRES   REMARKS
STOCKTON       CLEAR     31  29  92 S3        30.19S FOG
MODESTO        CLEAR     35  33  92 CALM      30.19S FOG
MERCED         CLEAR     35  31  85 CALM      30.19R FOG
LEMOORE        CLEAR    N/A N/A N/A W6        30.20R HAZE
FRESNO         PTCLDY    37  33  85 CALM      30.19R FOG
HANFORD        CLEAR     33  31  92 CALM      30.19R FOG
PORTERVILLE    PTCLDY    29  26  89 E3        30.18S FOG
BAKERSFIELD    PTCLDY    36  27  69 CALM      30.17R HAZE
$$
CAZ011-012-071-151500-
NORTHERN MOUNTAINS

CITY           SKY/WX    TMP DP  RH WIND       PRES   REMARKS
YREKA          PTCLDY    21  19  92 SW5       30.29R WCI  15
MOUNT SHASTA   CLEAR     37  26  64 VRB7      30.24R WCI  32
ALTURAS        CLOUDY    20  17  88 CALM      30.25S
$$
CAZ011-012-071-151500-
SIERRA NEVADA MTNS

CITY           SKY/WX    TMP DP  RH WIND       PRES   REMARKS
BLUE CANYON    PTCLDY    54   1  11 E3        30.30S
TAHOE VLY ARPT PTCLDY    20  15  81 CALM      30.35S
MAMMOTH LAKES  FAIR      16   4  58 CALM      30.38S
$$




USA.gov is the U.S. government's official web portal to all federal, state and local government web resources and services.